Air Resources Laboratory banner image
Air Resources Laboratory web site National Oceanic and Atmospheric Administration (NOAA)

ar roundup


Office: LZK

ASUS44 KLZK 161605
RWRLZK

WEATHER ROUNDUP FOR ARKANSAS
NATIONAL WEATHER SERVICE LITTLE ROCK AR
1100 AM CDT MON JUL 16 2018

NOTE: "FAIR" INDICATES FEW OR NO CLOUDS BELOW 12,000 FEET WITH NO
SIGNIFICANT WEATHER AND/OR OBSTRUCTIONS TO VISIBILITY.

ARZ001-003-010-029-161700-
NORTHWEST ARKANSAS

CITY           SKY/WX    TMP DP  RH WIND       PRES   REMARKS
FAYETTEVILLE   MOSUNNY   82  71  69 CALM      30.07F HX  86
FORT SMITH     MOSUNNY   88  73  61 W3        30.03S HX  95
HARRISON       CLOUDY    91  69  48 NW9       30.06F HX  96
BENTONVILLE    MOSUNNY   82  71  69 SW5       30.09F HX  86
ROGERS         CLOUDY    85  69  58 SW7       30.08F HX  89
SILOAM SPGS    CLOUDY    84  73  69 SW7       30.07F HX  90
HIGHFILL       CLOUDY    83  70  64 VRB3      30.07F HX  87
SPRINGDALE     PTSUNNY   82  72  69 SW5       30.09F HX  87
$$

ARZ004-005-016-161700-
NORTH CENTRAL ARKANSAS

CITY           SKY/WX    TMP DP  RH WIND       PRES   REMARKS
BATESVILLE     MOSUNNY   86  75  69 CALM      30.03S HX  95
FLIPPIN        PTSUNNY   86  74  67 VRB5      30.04F HX  94
MTN HOME       PTSUNNY   88  72  58 VRB5      30.04S HX  94
$$

ARZ040-041-161700-
WEST CENTRAL ARKANSAS

CITY           SKY/WX    TMP DP  RH WIND       PRES   REMARKS
MENA           MOSUNNY   90  75  62 SW3       30.08S HX 100
MOUNT IDA      MOSUNNY   87  77  72 CALM      30.04R HX  99
$$

ARZ009-017-025-026-028-161700-
NORTHEAST ARKANSAS

CITY           SKY/WX    TMP DP  RH WIND       PRES   REMARKS
CORNING        FAIR      88  82  84 CALM      30.00S HX 108
JONESBORO      FAIR      84  78  82 CALM      30.01S HX  95
NEWPORT        FAIR      85  76  74 S7        30.02R HX  94
WALNUT RIDGE     N/A     86  76  71 SW3       30.00F HX  96
BLYTHEVILLE    FAIR      86  76  71 S6        30.01S HX  96
NW BLYTHEVILLE MOSUNNY   88  77  70 SW7       30.00F HX 100
$$

ARZ022-023-033-042-044-161700-
CENTRAL ARKANSAS

CITY           SKY/WX    TMP DP  RH WIND       PRES   REMARKS
LITTLE ROCK    PTSUNNY   88  76  67 CALM      30.02S HX  99
N LITTLE ROCK    N/A     86  76  71 CALM      30.04R HX  95
JACKSONVILLE   MOSUNNY   83  77  82 NE7       30.03R HX  92
CONWAY         SUNNY     91  72  52 NW9       30.01R HX  98
SEARCY         CLOUDY    79  73  83 S5        30.04F
HOT SPRINGS    CLOUDY    93  74  53 VRB5      30.03F HX 103
RUSSELLVILLE   CLOUDY    90  75  61 W8        30.02S HX 100
CLINTON        FAIR      91  75  59 CALM      30.01F HX 102
$$

ARZ036-161700-
EAST ARKANSAS

CITY           SKY/WX    TMP DP  RH WIND       PRES   REMARKS
WEST MEMPHIS   FAIR      88  78  72 MISG      30.01S HX 101
$$

ARZ050-053-066-070-073-161700-
SOUTHWEST ARKANSAS

CITY           SKY/WX    TMP DP  RH WIND       PRES   REMARKS
ARKADELPHIA    FAIR      93  74  53 NW8       30.03S HX 103
CAMDEN         FAIR      90  73  58 W7        30.03S HAZE    HX  98
TEXARKANA      SUNNY     88  71  57 W8        30.05S HX  94
EL DORADO      FAIR      91  74  57 VRB6      30.05F HX 100
DE QUEEN       SUNNY     90  76  63 VRB6      30.02F HX 101
$$

ARZ056-057-069-161700-
SOUTHEAST ARKANSAS

CITY           SKY/WX    TMP DP  RH WIND       PRES   REMARKS
PINE BLUFF     CLOUDY    79  73  82 SE5       30.03S THUNDER
STUTTGART      FAIR      84  75  74 SW6       30.03S HX  92
MONTICELLO     FAIR      91  76  61 W7        30.03S HX 103

$$